Regional Weather Roundup
Issued by NWS

Home | Current Version | Previous Version | Text Only | Print | Product List | Glossary On
Versions: 1 2 3 4 5 6 7 8 9 10 11 12 13 14 15 16 17 18 19 20 21 22 23 24 25 26 27
000
ASUS44 KBMX 111110
RWRAL

ALABAMA REGIONAL WEATHER ROUNDUP
NATIONAL WEATHER SERVICE BIRMINGHAM AL
500 AM CST MON DEC 11 2017

NOTE: "FAIR" INDICATES FEW OR NO CLOUDS BELOW 12,000 FEET
WITH NO SIGNIFICANT WEATHER AND/OR OBSTRUCTIONS TO VISIBILITY.

THE REMARK "TC" DENOTES TEMPERATURE IN DEGREES CELSIUS.

ALZ001>011-014-016>018-020-111200-
NORTH ALABAMA

CITY           SKY/WX    TMP DP  RH WIND       PRES   REMARKS
MUSCLE SHOALS  CLEAR     32  25  75 CALM      30.18S
HUNTSVILLE     CLEAR     31  27  85 E3        30.18R
DECATUR        CLEAR     28  27  96 CALM      30.19R
HALEYVILLE     FAIR      32  27  81 SW5       30.19S WCI  27
GADSDEN        CLEAR     26  25  96 CALM      30.21S
$$

ALZ012-013-022-023-030>036-040>044-111200-
WEST CENTRAL ALABAMA

CITY           SKY/WX    TMP DP  RH WIND       PRES   REMARKS
TUSCALOOSA     CLEAR     30  29  96 CALM      30.23S
DEMOPOLIS        N/A     32  31  94 S3        30.23S
$$

ALZ015-024>026-033>036-041>044-111200-
CENTRAL ALABAMA

CITY           SKY/WX    TMP DP  RH WIND       PRES   REMARKS
BIRMINGHAM     CLEAR     32  28  85 CALM      30.22S
MONTGOMERY     CLEAR     29  25  85 CALM      30.25S
SHELBY CO ARPT CLEAR     31  30  96 CALM      30.21F
MAXWELL AFB    CLEAR     29  29  99 CALM      30.23F
GREENVILLE     FAIR      29  25  85 S3        30.24S
SELMA          FAIR      30  28  93 CALM      30.23F
PRATTVILLE     FAIR      28  27  99 CALM      30.24F
BESSEMER       FAIR      34  29  82 CALM      30.21S
TALLADEGA      FAIR      28  26  93 CALM      30.22S
PELL CITY      SUNNY     27  27 100 CALM      30.22S
MARION         FAIR      30  30 100 S7        30.22F WCI  23
SYLACAUGA      FAIR      27  27 100 CALM      30.22F
$$

ALZ019-021-028-029-037-038-045>048-111200-
EAST CENTRAL ALABAMA

CITY           SKY/WX    TMP DP  RH WIND       PRES   REMARKS
ANNISTON       CLEAR     28  25  88 SW3       30.21S
ALEXANDER CITY CLEAR     28  27  95 CALM      30.21F
AUBURN         NOT AVBL
$$

ALZ051>064-111200-
SOUTHWEST ALABAMA

CITY           SKY/WX    TMP DP  RH WIND       PRES   REMARKS
MOBILE         FLURRIES  35  32  88 SW5       30.29S WCI  31
BROOKLEY FIELD CLEAR     40  39  97 W5        30.30F
EVERGREEN      CLEAR     28  26  92 CALM      30.27F
$$

ALZ049-050-065>069-111200-
SOUTHEAST ALABAMA

CITY           SKY/WX    TMP DP  RH WIND       PRES   REMARKS
DOTHAN         CLEAR     33  31  92 MISG      30.29S
OZARK          CLEAR     30  28  92 S5        30.26S WCI  25
TROY           CLEAR     28  27  96 CALM      30.26S
EUFAULA        FAIR      29  27  92 CALM      30.24F
$$




USA.gov is the U.S. government's official web portal to all federal, state and local government web resources and services.